Date String (YYYY-MM-DD hh:mm:ss) UTC,Instrument flags,Ambient pressure (hPa),Sample flow (lpm),Bypass flow (lpm),Sample temperature (°C),Ambient temperature (°C),ASC tube jacket temperature (°C),LED temperature (°C),Box temperature (°C),Sample RH (%),Span deviation,Mass concentration (μg/m³),Mass concentration (μg/m³),Mass concentration (μg/m³)
DateTimeUTC,F1_M11,P_M11,Q1_M11,Q2_M11,T1_M11,T2_M11,T3_M11,T4_M11,T5_M11,U1_M11,ZSPAN_M11,X0_M11,X2_M11,X1_M11
2022-12-31 07:00:00,,0812.7,5.00,0.00,21.8,20.5,00.0,30.7,23.5,11.3,0000.0,0003.91,0003.03,0002.87
2022-12-31 07:01:00,,0812.9,5.01,0.00,21.8,20.5,00.0,30.7,23.5,11.3,0000.0,0004.30,0003.21,0003.10
2022-12-31 07:02:00,,0813.0,5.03,0.00,21.8,20.4,00.0,30.7,23.5,11.3,0000.0,0004.83,0003.39,0003.25
2022-12-31 07:03:00,,0813.1,4.97,0.00,21.8,20.7,00.0,30.7,23.6,11.5,0000.0,0005.14,0003.40,0003.25
2022-12-31 07:04:00,,0813.3,4.97,0.00,21.9,21.8,00.0,30.7,23.8,11.3,0000.0,0005.41,0003.43,0003.25
2022-12-31 07:05:00,,0813.3,5.02,0.00,22.1,22.5,00.0,30.7,24.1,11.2,0000.0,0005.50,0003.47,0003.29
2022-12-31 07:06:00,,0813.3,5.03,0.00,22.1,22.3,00.0,30.7,24.1,11.4,0000.0,0005.59,0003.49,0003.29
2022-12-31 07:07:00,,0813.3,4.99,0.00,22.1,22.0,00.0,30.8,24.0,11.7,0000.0,0005.32,0003.36,0003.15
2022-12-31 07:08:00,,0813.2,4.98,0.00,22.2,21.7,00.0,30.8,24.0,11.8,0000.0,0005.00,0003.20,0002.88
2022-12-31 07:09:00,,0813.2,4.98,0.00,22.2,21.6,00.0,30.9,24.0,11.8,0000.0,0004.79,0003.07,0002.67
2022-12-31 07:10:00,,0813.3,5.03,0.00,22.2,21.4,00.0,30.9,24.0,11.8,0000.0,0004.42,0002.80,0002.40
2022-12-31 07:11:00,,0813.3,5.02,0.00,22.2,21.3,00.0,30.9,24.0,11.8,0000.0,0004.16,0002.60,0002.21
2022-12-31 07:12:00,,0813.3,4.98,0.00,22.2,21.2,00.0,30.9,24.0,11.8,0000.0,0003.91,0002.44,0002.05
2022-12-31 07:13:00,,0813.3,4.98,0.00,22.2,21.1,00.0,30.9,24.0,11.8,0000.0,0003.50,0002.22,0001.89
2022-12-31 07:14:00,,0813.3,4.98,0.00,22.2,21.1,00.0,30.9,24.0,11.9,0000.0,0003.15,0002.12,0001.82
2022-12-31 07:15:00,,0813.4,5.02,0.00,22.2,21.0,00.0,30.9,23.9,11.9,0000.0,0002.81,0002.12,0001.85
2022-12-31 07:16:00,,0813.4,5.04,0.00,22.2,20.9,00.0,31.0,23.9,11.5,0000.0,0003.04,0002.31,0002.04
2022-12-31 07:17:00,,0813.5,4.97,0.00,22.2,20.8,00.0,30.9,23.9,11.5,0000.0,0003.75,0002.84,0002.51
2022-12-31 07:18:00,,0813.2,4.99,0.00,22.1,20.8,00.0,31.0,23.9,11.3,0000.0,0005.58,0003.81,0003.60
2022-12-31 07:19:00,,0813.1,5.01,0.00,22.1,20.8,00.0,31.0,23.9,11.4,0000.0,0006.99,0004.50,0004.29
2022-12-31 07:20:00,,0813.1,5.01,0.00,22.1,20.8,00.0,31.0,23.9,11.5,0000.0,0007.67,0004.92,0004.68
2022-12-31 07:21:00,,0813.1,4.99,0.00,22.1,20.8,00.0,31.0,23.9,11.6,0000.0,0008.23,0005.36,0005.10
2022-12-31 07:22:00,,0813.1,5.02,0.00,22.1,20.8,00.0,31.0,23.9,11.7,0000.0,0008.74,0005.76,0005.47
2022-12-31 07:23:00,,0813.2,5.00,0.00,22.1,20.9,00.0,31.0,23.9,11.8,0000.0,0009.08,0006.03,0005.72
2022-12-31 07:24:00,,0812.9,4.99,0.00,22.1,20.8,00.0,31.0,23.9,12.0,0000.0,0009.21,0006.15,0005.85
2022-12-31 07:25:00,,0812.9,4.97,0.00,22.1,20.8,00.0,31.0,23.9,12.1,0000.0,0009.32,0006.25,0005.93
2022-12-31 07:26:00,,0812.9,5.01,0.00,22.1,20.8,00.0,31.0,23.9,12.2,0000.0,0009.70,0006.37,0006.02
2022-12-31 07:27:00,,0812.8,5.04,0.00,22.1,20.8,00.0,31.0,23.9,12.2,0000.0,0009.94,0006.37,0006.00
2022-12-31 07:28:00,,0812.8,5.01,0.00,22.1,20.8,00.0,31.0,23.9,12.2,0000.0,0009.88,0006.23,0005.89
2022-12-31 07:29:00,,0812.8,4.98,0.00,22.1,20.8,00.0,31.0,23.9,12.5,0000.0,0009.02,0005.53,0005.22
2022-12-31 07:30:00,,0812.8,5.07,0.00,22.1,20.8,00.0,31.0,23.9,12.6,0000.0,0008.57,0005.01,0004.65
2022-12-31 07:31:00,,0812.7,5.00,0.00,22.1,20.9,00.0,30.9,23.9,12.4,0000.0,0008.42,0004.85,0004.46
2022-12-31 07:32:00,,0812.7,5.00,0.00,22.1,20.9,00.0,30.9,23.9,11.9,0000.0,0008.48,0004.96,0004.56
2022-12-31 07:33:00,,0812.7,4.98,0.00,22.1,20.9,00.0,30.9,23.9,11.9,0000.0,0009.16,0005.21,0004.78
2022-12-31 07:34:00,,0812.7,4.99,0.00,22.1,20.8,00.0,30.9,23.9,12.1,0000.0,0010.28,0005.42,0004.96
2022-12-31 07:35:00,,0812.7,4.99,0.00,22.1,20.8,00.0,30.9,23.9,12.3,0000.0,0010.63,0005.64,0005.13
2022-12-31 07:36:00,,0812.7,5.03,0.00,22.1,20.8,00.0,30.9,23.9,12.4,0000.0,0010.88,0005.80,0005.27
2022-12-31 07:37:00,,0812.6,5.01,0.00,22.1,20.7,00.0,30.9,23.9,12.0,0000.0,0010.99,0006.04,0005.47
2022-12-31 07:38:00,,0812.6,5.00,0.00,22.1,20.8,00.0,30.9,23.8,11.6,0000.0,0011.77,0006.64,0006.02
2022-12-31 07:39:00,,0812.7,4.97,0.00,22.1,21.5,00.0,30.9,24.1,11.4,0000.0,0012.38,0007.21,0006.55
2022-12-31 07:40:00,,0812.7,5.00,0.00,22.3,22.6,00.0,30.9,24.3,11.4,0000.0,0013.36,0007.94,0007.19
2022-12-31 07:41:00,,0812.7,5.02,0.00,22.4,22.8,00.0,31.0,24.4,11.6,0000.0,0013.94,0008.39,0007.61
2022-12-31 07:42:00,,0812.6,5.02,0.00,22.4,22.5,00.0,31.0,24.4,11.4,0000.0,0014.50,0008.83,0008.03
2022-12-31 07:43:00,,0812.6,4.99,0.00,22.4,22.1,00.0,31.1,24.3,11.1,0000.0,0015.10,0009.31,0008.49
2022-12-31 07:44:00,,0812.5,5.02,0.00,22.4,21.8,00.0,31.1,24.3,11.0,0000.0,0015.29,0009.77,0008.94
2022-12-31 07:45:00,,0812.4,5.02,0.00,22.4,21.6,00.0,31.1,24.2,11.0,0000.6,0015.15,0010.36,0009.48
2022-12-31 07:46:00,,0812.4,5.00,0.00,22.4,21.5,00.0,31.1,24.2,11.0,0000.9,0015.75,0010.93,0010.06
2022-12-31 07:47:00,,0812.5,4.97,0.00,22.4,21.3,00.0,31.1,24.2,10.9,0000.8,0016.69,0011.78,0010.86
2022-12-31 07:48:00,,0812.6,4.98,0.00,22.4,21.2,00.0,31.2,24.1,10.9,0000.6,0017.50,0012.50,0011.62
2022-12-31 07:49:00,,0812.5,4.98,0.00,22.4,21.1,00.0,31.2,24.1,10.9,0000.9,0017.53,0012.81,0011.95
2022-12-31 07:50:00,,0812.5,5.03,0.00,22.3,21.0,00.0,31.2,24.1,10.9,0001.0,0017.83,0013.05,0012.20
2022-12-31 07:51:00,,0812.5,5.01,0.00,22.3,20.9,00.0,31.2,24.0,10.9,0000.6,0017.98,0013.26,0012.42
2022-12-31 07:52:00,,0812.6,4.99,0.00,22.3,20.9,00.0,31.1,24.0,10.9,0000.8,0018.36,0013.71,0012.88
2022-12-31 07:53:00,,0812.6,4.98,0.00,22.3,20.8,00.0,31.1,24.0,10.9,0000.9,0018.77,0014.16,0013.35
2022-12-31 07:54:00,,0812.5,4.98,0.00,22.3,20.8,00.0,31.1,24.0,10.9,0001.0,0018.84,0014.23,0013.44
2022-12-31 07:55:00,,0812.6,5.04,0.00,22.3,21.3,00.0,31.1,24.1,10.9,0001.5,0018.78,0014.17,0013.39
2022-12-31 07:56:00,,0812.5,5.01,0.00,22.4,22.2,00.0,31.1,24.3,10.9,0001.9,0018.69,0014.14,0013.40
2022-12-31 07:57:00,,0812.5,4.98,0.00,22.5,23.0,00.0,31.1,24.6,11.0,0001.9,0018.51,0013.99,0013.27
2022-12-31 07:58:00,,0812.6,4.97,0.00,22.6,22.8,00.0,31.2,24.6,11.2,0001.8,0018.09,0013.61,0012.92
2022-12-31 07:59:00,,0812.7,5.01,0.00,22.6,22.3,00.0,31.2,24.5,11.3,0002.1,0017.81,0013.26,0012.57
